Location: Unspecified
(0.0000°N, 0.0000°E)
Time: 12:08:05
(UTC+00:00)

Vanguard 3 - Pass Details

Date: 21 November 2019
Orbit: 508 x 3263 km, 33.3° (Epoch: 10 December)

Event Time Altitude Azimuth Distance (km) Brightness Sun altitude
Rises 11:51:02 0° 260° (W) 5,658 11.5 70.1°
Reaches altitude 10° 11:54:41 10° 268° (W) 4,991 11.3 70.0°
Maximum altitude 12:08:55 40° 332° (NNW) 3,974 11.0 69.3°
Drops below altitude 10° 12:26:53 10° 35° (NE) 6,149 11.5 67.7°
Sets 12:32:09 0° 43° (NE) 7,033 11.7 67.1°
